Wind_Speed
33 33 32 31 31 30 30 29 28 27 26 25 25 25 25 24 23 22 21 20 19 19 18 17 16 15 15 14 13 13 12 12 12 12 12 12 12 12 11 11 11 11 11 11 12 12 13 13 13 12 12 12 11 11 10 10 10 11 11 11 10 10 11 10 10 9 9 10 10 9 8 8 8 8 8 8 9 9 9 9 9 9 8 9 9 9 10 10
35 34 34 33 33 32 31 31 30 29 28 27 27 27 26 25 24 24 22 21 20 20 19 18 17 16 16 15 15 14 14 14 14 13 13 13 13 12 12 12 12 11 11 11 12 13 13 13 13 13 13 12 12 12 12 12 12 12 12 12 12 12 11 11 10 9 10 11 11 9 7 8 9 8 8 9 10 9 9 11 11 10 9 10 11 10 10 10
36 36 35 35 34 34 33 32 31 30 30 29 29 29 28 27 26 25 24 23 22 21 20 19 18 17 16 16 15 15 14 15 14 14 14 13 13 13 12 12 12 12 12 12 12 13 13 13 13 13 13 13 13 13 13 14 14 14 13 13 14 12 11 12 11 10 10 12 12 11 7 7 10 9 8 9 10 8 9 12 12 12 11 11 12 12 11 10
38 37 37 37 36 35 35 34 33 32 32 32 31 31 30 28 27 26 25 24 23 22 21 20 19 18 17 16 16 15 15 15 14 14 14 13 13 13 12 11 11 11 12 12 13 13 13 14 14 14 14 14 14 15 15 15 15 15 14 14 14 13 13 13 12 11 10 11 12 11 8 8 11 10 9 9 10 9 10 13 13 14 13 13 14 13 12 11
39 39 38 38 37 36 36 35 35 34 34 34 33 32 31 30 29 27 26 25 24 23 22 21 20 19 18 18 17 16 15 15 15 15 14 14 13 12 12 11 11 11 12 12 12 13 13 14 14 14 15 15 15 16 17 17 17 16 15 15 14 13 14 14 14 13 12 11 11 12 10 10 11 11 10 11 11 11 10 12 14 15 15 15 15 14 13 12
41 41 40 39 38 38 37 36 36 36 36 35 35 34 32 31 30 28 27 26 25 25 24 23 22 21 20 20 19 17 17 16 16 15 14 14 13 12 12 11 11 11 12 12 12 13 14 14 15 16 16 16 17 18 18 18 17 16 16 16 13 13 14 14 14 14 13 12 12 13 13 12 12 12 12 12 13 13 12 12 14 15 16 16 16 15 14 13
43 43 42 41 40 39 38 38 37 37 37 37 36 35 33 32 31 30 29 28 27 26 25 24 23 23 22 21 20 19 18 17 16 16 15 14 13 12 12 12 12 12 12 13 14 14 15 16 17 17 18 18 19 20 19 19 18 17 17 16 13 14 15 15 15 15 15 15 14 15 15 15 14 13 14 14 15 16 15 14 14 15 16 17 17 17 16 15
45 44 43 42 41 41 40 39 39 39 39 38 37 36 34 33 32 31 30 29 29 28 27 26 25 25 24 23 21 20 19 18 17 16 16 15 14 13 13 12 13 13 13 14 15 16 17 18 19 19 19 19 20 21 21 20 19 18 18 17 15 15 16 16 16 16 17 18 17 17 18 18 17 16 16 16 17 19 18 15 15 15 15 16 17 17 17 16
46 46 45 44 43 42 42 41 41 41 40 39 38 37 36 35 33 32 31 31 31 30 29 28 27 26 25 24 23 22 21 20 19 18 17 16 15 14 14 13 13 13 14 14 15 17 18 19 20 20 20 20 21 21 21 20 19 18 18 17 17 16 17 17 17 17 18 19 19 19 19 20 20 18 18 20 21 21 19 17 16 16 16 17 17 17 17 17
46 46 46 45 44 44 43 43 42 42 42 41 40 39 37 36 35 34 33 33 33 32 31 30 29 28 27 26 25 24 23 22 21 20 18 17 17 16 15 15 14 14 14 14 15 16 17 18 19 20 20 20 20 21 21 20 19 19 18 18 18 18 18 18 18 18 19 20 21 20 20 21 21 19 20 23 23 21 19 18 17 17 17 17 17 18 17 17
46 46 46 46 46 45 45 44 44 44 43 43 42 40 39 38 36 36 35 35 34 33 33 32 31 30 29 28 27 26 24 24 23 22 21 20 19 18 17 16 16 15 15 15 15 16 17 18 19 19 20 20 20 20 21 20 20 20 19 19 20 19 19 19 20 20 20 21 22 22 21 21 21 20 22 24 22 21 20 19 18 18 18 17 17 18 18 18
45 46 47 47 47 46 46 46 46 45 45 44 43 42 41 40 39 38 37 37 36 35 35 34 33 32 31 30 29 28 27 26 24 24 23 22 22 20 20 19 18 17 16 16 16 16 16 17 18 19 20 20 20 20 21 20 20 20 20 20 22 21 20 20 21 21 22 22 22 23 21 20 21 21 23 23 22 21 21 21 20 19 18 18 18 19 19 19
43 45 46 47 47 47 47 47 47 46 46 45 45 44 43 42 41 40 39 39 38 37 37 36 35 34 33 32 31 29 29 28 26 26 25 25 24 23 22 21 20 19 19 18 17 17 17 17 18 19 20 20 20 21 21 21 21 22 21 22 24 23 21 22 22 22 23 23 23 23 21 19 21 22 22 23 21 22 22 22 21 20 20 19 19 19 20 20
43 44 45 46 47 48 48 48 48 47 47 47 46 45 45 43 43 42 41 41 40 39 39 38 37 36 35 34 32 31 31 30 28 28 28 27 26 25 24 23 23 22 21 20 19 18 18 18 18 19 20 21 21 21 22 22 22 23 23 24 26 25 23 22 23 24 23 23 24 25 22 19 21 23 23 23 22 22 23 23 22 21 21 20 20 20 20 21
43 44 44 45 46 47 48 48 48 48 48 48 47 47 46 45 44 43 43 42 42 41 40 39 38 37 36 35 34 33 32 31 31 30 30 29 28 27 26 26 25 24 24 23 21 20 19 19 19 20 20 22 22 22 23 23 23 25 26 27 27 27 25 23 24 24 24 24 25 26 24 21 22 23 24 24 23 23 24 24 23 22 22 22 21 21 22 22
44 44 45 45 45 46 47 48 48 48 48 48 48 48 47 47 46 45 45 44 44 43 42 41 40 39 38 37 36 35 34 33 33 32 31 30 30 29 28 28 27 27 26 25 24 23 22 21 21 21 21 22 23 23 24 25 25 27 29 28 28 28 27 25 25 25 25 26 26 27 26 24 24 25 24 25 24 24 24 25 25 24 23 23 23 23 23 24
46 46 46 46 46 46 46 47 48 48 49 49 49 49 49 48 48 47 47 46 45 45 44 43 42 41 40 38 37 36 36 35 35 34 33 32 31 31 30 30 30 29 28 28 27 25 24 24 23 23 23 23 24 24 26 28 27 30 31 29 29 30 30 29 27 27 27 27 27 28 26 25 27 27 25 25 24 24 24 25 26 25 25 25 25 25 25 26
47 47 47 47 46 46 47 47 47 48 49 49 49 49 49 49 49 49 48 48 47 46 46 45 43 43 42 40 39 38 38 38 37 36 35 34 34 33 33 32 32 31 30 30 29 28 27 26 26 25 24 24 24 26 29 30 30 32 32 31 31 31 32 32 30 29 29 29 29 29 27 25 28 29 27 27 26 25 24 24 25 25 26 27 27 27 27 28
50 49 49 48 48 48 48 48 48 48 49 49 49 49 50 50 50 50 50 50 49 48 48 46 45 45 43 42 41 40 40 40 39 38 37 36 36 35 35 34 34 33 32 32 31 30 30 29 28 27 26 25 26 28 30 31 31 32 33 33 32 32 33 33 33 32 31 31 31 31 29 27 27 29 29 29 29 27 25 24 24 25 27 28 28 29 28 29
52 51 51 50 50 49 49 49 49 49 49 49 49 49 50 50 51 51 51 51 50 50 49 48 47 46 45 44 43 42 42 41 41 40 39 38 38 37 37 36 36 35 34 34 33 32 31 31 29 28 27 28 29 30 31 32 32 33 35 35 35 35 34 35 37 37 35 34 33 32 32 29 27 28 29 30 30 28 26 26 26 26 27 28 30 30 30 29
53 53 52 52 52 51 51 50 50 50 50 50 49 49 50 50 51 51 52 52 52 51 51 50 49 48 47 46 45 44 43 43 43 42 41 40 40 40 39 38 37 36 36 36 35 34 33 32 31 29 30 32 32 32 32 33 33 34 36 36 36 37 36 37 39 39 38 37 35 33 33 30 27 28 29 30 30 28 27 28 27 27 28 29 31 32 31 31
56 55 54 54 53 53 53 52 51 51 51 51 50 50 50 50 51 52 52 52 53 52 52 52 51 50 49 48 47 46 45 44 44 44 43 43 42 42 41 40 39 38 38 37 37 35 34 34 32 32 33 34 34 33 34 35 35 35 37 38 38 38 39 39 39 40 40 40 37 36 35 32 28 29 29 30 31 29 29 28 28 29 29 29 31 33 33 32
59 58 56 56 55 55 55 54 53 52 52 51 51 51 51 52 52 52 53 53 53 53 53 53 53 52 51 50 49 48 47 46 46 46 45 45 44 44 43 41 40 40 40 39 38 37 36 35 34 35 36 35 34 35 36 37 38 38 38 39 39 39 40 40 39 41 41 41 39 38 37 34 29 29 29 30 31 30 30 30 30 31 31 31 32 33 33 33
62 61 60 58 57 56 56 56 56 54 54 53 52 52 52 52 53 53 54 55 55 53 52 53 53 53 52 51 51 50 49 48 48 47 47 46 45 45 44 43 42 42 41 41 40 39 38 37 37 38 37 36 36 36 37 38 40 41 40 41 41 40 40 40 39 41 41 41 40 39 39 35 30 30 29 28 31 31 30 31 31 32 32 32 33 33 33 34
64 63 63 62 60 59 58 58 57 56 56 55 53 53 53 54 54 55 55 57 58 55 53 54 54 54 54 53 52 51 51 51 50 49 48 47 47 47 46 45 44 43 42 42 42 41 39 39 40 40 38 37 37 37 38 40 41 42 42 41 41 40 40 39 40 41 42 42 40 39 41 37 30 30 28 27 30 31 31 31 31 32 32 32 34 34 35 34
65 65 65 64 64 62 61 59 57 57 57 56 55 55 55 55 55 56 56 58 61 58 55 54 55 55 55 54 53 52 53 53 51 50 49 49 48 48 47 46 45 44 43 43 44 43 42 41 41 41 40 38 38 38 39 41 42 43 42 40 40 40 40 40 41 42 43 44 42 39 41 40 32 27 25 26 30 31 31 30 29 30 31 32 34 35 35 35
68 67 66 66 66 65 64 62 60 59 58 56 57 57 57 57 58 58 57 59 64 61 57 56 56 57 56 55 55 54 55 54 51 51 51 50 49 48 48 47 46 45 44 44 46 45 44 43 42 42 42 41 40 39 40 41 42 43 41 39 40 41 41 42 42 43 44 44 44 40 40 42 36 25 22 27 30 29 28 28 28 29 31 32 34 35 35 36
70 69 68 68 68 68 66 65 63 61 60 59 60 60 60 59 59 60 58 61 66 64 61 59 59 59 59 58 57 56 57 55 53 52 51 50 50 48 48 48 47 46 45 46 47 47 47 46 46 44 42 41 39 38 38 39 40 41 40 40 41 41 42 42 42 43 43 43 44 39 36 41 41 29 24 27 27 26 25 26 28 29 31 33 34 35 35 35
67 70 71 70 70 70 69 68 65 63 63 62 62 61 61 61 61 60 60 63 67 66 64 62 60 61 61 60 60 59 58 57 55 54 52 51 50 48 48 47 46 47 46 47 47 47 48 48 47 44 42 41 39 38 38 39 40 41 40 40 41 41 42 42 43 42 43 45 42 36 33 39 43 36 29 26 24 25 26 26 27 29 32 34 35 35 36 36
60 64 70 73 72 71 71 70 67 65 65 64 64 63 63 63 63 62 64 66 66 67 67 65 63 62 62 61 61 60 59 58 57 56 54 53 52 50 48 47 47 48 48 48 48 49 49 48 47 46 44 43 42 40 39 40 41 42 42 41 41 42 42 43 43 42 44 46 40 34 33 38 44 40 32 27 25 26 27 27 29 30 33 35 35 36 36 36
59 59 63 69 73 73 72 70 68 66 67 66 65 65 66 66 65 65 67 67 66 68 70 68 65 64 63 62 61 60 59 58 57 57 56 55 54 53 52 51 50 50 51 52 51 50 49 49 49 49 48 47 45 43 41 40 41 42 42 42 41 43 43 43 44 43 46 46 39 36 37 40 45 42 35 32 29 27 27 27 29 31 32 35 36 37 36 36
58 58 57 61 68 74 74 71 70 69 67 66 67 67 67 68 70 70 70 68 67 70 73 71 68 67 65 63 62 61 61 60 59 58 57 57 56 55 54 53 52 51 54 54 53 51 51 51 52 52 51 48 45 43 41 40 40 39 40 41 41 43 45 45 45 44 45 44 40 39 41 43 45 40 35 34 32 31 28 26 27 30 31 33 35 37 37 37
57 58 57 56 59 67 73 73 73 73 70 67 68 69 69 71 74 73 71 70 70 74 75 73 71 69 68 66 65 64 63 62 61 60 59 58 58 57 56 55 54 54 55 55 54 54 54 55 54 52 50 47 44 42 41 39 39 40 40 40 41 44 46 46 45 44 44 44 42 43 45 46 44 38 34 33 32 32 31 28 27 29 31 33 34 36 37 38
56 58 58 56 52 55 65 70 72 74 72 70 71 72 73 76 76 74 73 72 73 75 76 74 73 71 70 69 67 66 65 64 63 63 62 61 61 60 59 58 56 55 54 54 55 55 56 56 53 49 47 45 44 42 41 40 41 42 40 40 43 43 44 45 45 45 46 45 45 46 47 47 43 38 35 35 33 32 31 30 29 29 30 32 34 35 36 37
59 59 57 56 52 49 53 60 66 71 72 72 74 76 77 76 74 72 74 74 75 76 77 77 76 75 73 72 70 68 67 66 65 65 64 63 62 61 60 58 57 56 54 53 54 54 54 53 50 47 46 45 44 43 42 41 42 43 42 44 44 41 40 44 46 47 47 48 48 48 48 47 44 41 38 37 34 31 31 32 31 31 31 31 33 34 35 36
63 63 61 59 56 51 51 55 59 64 67 71 76 80 79 73 67 66 68 71 74 76 77 77 78 77 76 75 73 72 70 68 67 66 65 64 63 61 59 58 56 56 54 52 52 51 51 50 49 48 47 46 45 44 43 42 44 45 46 45 43 40 41 44 47 47 46 49 50 50 48 46 45 43 39 37 35 33 33 33 32 32 32 32 33 33 34 35
62 62 61 60 57 54 53 55 56 59 62 68 74 75 74 70 65 64 66 68 71 73 74 76 77 77 77 76 75 74 72 70 68 67 66 65 64 61 59 58 56 55 53 51 50 50 50 51 51 50 49 47 46 45 45 45 46 47 47 44 42 43 44 44 46 47 47 50 52 51 50 47 46 44 39 38 38 38 37 35 33 32 33 34 34 34 34 34
63 62 61 59 58 56 54 55 58 59 61 66 69 68 65 63 61 63 66 67 68 69 71 73 74 75 75 74 74 73 72 71 68 66 65 64 63 59 57 56 54 53 52 51 51 50 51 53 54 54 52 50 48 47 48 48 48 47 46 45 44 45 45 44 45 47 48 50 52 51 50 47 45 43 41 40 40 40 39 37 34 33 33 34 35 35 34 33
65 63 62 58 57 57 56 58 62 64 65 68 68 64 60 57 55 59 64 66 67 67 67 68 71 73 73 72 72 72 72 70 67 65 64 62 61 59 57 55 53 52 51 51 51 50 50 52 54 55 54 53 52 51 50 49 47 46 46 46 47 47 47 45 45 47 47 48 50 50 50 48 44 43 43 42 41 40 39 37 34 33 33 33 34 35 33 32
71 68 65 60 58 59 57 58 64 69 70 70 67 61 57 54 52 55 60 63 65 67 65 64 66 69 70 70 70 70 71 71 69 67 65 63 62 60 58 56 53 50 50 51 50 48 48 49 51 52 52 53 53 52 49 47 46 47 48 49 49 48 47 47 47 46 45 45 46 49 52 51 46 45 44 42 41 39 37 35 34 33 33 32 32 33 32 31
76 75 72 66 62 61 60 61 66 69 70 68 64 59 57 56 54 55 58 60 62 63 64 64 65 66 66 66 67 66 66 67 67 66 64 62 60 58 56 53 49 47 48 49 47 46 47 47 47 49 50 50 50 49 49 50 50 51 51 51 51 49 48 48 47 45 42 42 43 48 54 52 46 48 46 41 40 40 38 36 34 34 34 33 33 33 32 32
75 75 76 73 67 64 65 68 69 70 70 66 60 58 59 59 57 56 58 59 60 59 60 65 67 65 65 66 66 66 66 66 66 65 64 62 59 56 53 50 48 48 48 48 46 46 48 48 47 48 49 48 49 50 52 52 53 53 53 53 53 50 48 46 44 43 42 43 44 49 55 52 46 48 47 41 40 41 42 39 36 35 35 34 34 34 35 34
73 72 74 77 74 68 69 72 73 73 70 63 59 60 62 60 58 59 60 60 60 57 57 63 66 66 64 64 66 67 67 67 67 67 65 63 61 57 55 53 52 51 49 48 47 48 50 52 50 49 49 49 49 50 52 53 55 55 55 53 50 48 45 43 43 43 44 46 47 51 56 53 47 47 47 43 43 43 44 43 39 37 35 34 35 35 36 37
72 70 71 74 76 74 73 73 73 73 67 62 63 66 65 63 61 62 62 62 60 58 55 56 60 64 64 63 65 66 66 66 65 64 64 64 62 59 58 57 55 53 51 49 49 49 52 54 52 51 51 50 51 52 53 55 56 55 51 48 47 45 44 45 45 46 49 50 50 53 57 53 47 47 47 46 46 46 46 46 43 40 37 35 34 35 36 37
72 71 70 71 74 76 76 73 72 72 68 66 68 67 65 65 64 63 62 63 63 61 57 52 51 55 59 60 62 63 64 64 63 63 63 63 62 61 61 60 57 55 52 51 51 53 55 56 54 53 52 52 52 52 52 52 53 52 50 48 47 46 46 48 48 50 54 55 53 55 57 53 49 49 48 47 48 48 47 47 46 43 39 34 33 34 35 35
74 73 71 70 73 77 78 74 72 73 71 70 71 70 66 63 62 62 64 64 64 63 60 55 51 52 54 55 56 57 58 58 58 60 63 63 62 61 60 58 56 55 53 53 53 55 57 58 55 53 53 52 52 51 51 52 52 53 51 49 48 47 46 49 51 53 55 56 56 56 55 53 50 48 46 44 46 49 49 49 47 45 42 38 35 34 35 35
74 76 73 70 72 77 79 77 74 74 73 72 73 73 71 67 63 65 67 64 61 60 59 57 56 57 57 55 54 54 54 53 55 56 57 58 58 58 57 56 54 53 53 53 54 54 57 57 55 53 53 52 50 50 51 53 54 55 53 52 50 49 50 52 55 55 54 56 59 56 54 53 50 45 44 43 45 50 50 48 47 46 46 44 40 38 38 39
73 75 74 72 72 76 79 79 77 75 73 72 73 72 71 69 66 65 63 59 56 57 57 57 57 57 56 55 57 57 55 55 55 53 52 54 55 56 55 54 53 53 52 52 52 52 54 54 52 51 51 50 48 48 50 52 54 56 57 57 56 55 55 56 56 55 55 59 60 56 53 53 49 46 46 44 45 48 48 46 47 48 47 46 44 44 44 43
72 72 73 73 73 75 77 77 77 76 75 75 74 70 65 65 64 62 60 58 58 58 56 55 52 51 53 55 58 60 59 57 54 49 49 52 53 53 53 52 52 51 50 51 51 51 51 50 49 49 50 49 47 47 49 51 52 55 58 59 58 57 57 57 58 58 59 60 59 53 52 53 51 49 47 45 46 47 46 46 48 48 47 47 48 48 47 46
72 71 71 71 72 74 77 77 74 74 77 79 78 68 58 56 58 59 59 60 60 58 57 56 53 50 53 56 58 59 58 56 53 49 48 50 51 51 51 52 51 49 47 47 47 48 49 50 50 51 52 51 48 49 51 50 50 51 54 56 56 56 57 59 60 58 57 57 54 51 53 54 51 48 46 47 49 50 49 49 49 49 50 50 50 50 48 47
73 72 70 71 71 72 76 80 78 74 73 77 82 77 66 59 57 57 59 61 62 59 57 57 55 53 54 56 57 57 56 54 53 51 49 49 49 48 48 49 48 45 43 42 42 43 46 49 51 52 54 54 51 50 52 50 49 50 51 51 53 55 57 58 56 54 54 54 53 53 56 54 49 48 50 51 53 53 52 52 52 52 52 52 52 52 50 49
74 73 72 73 70 67 70 77 82 82 76 72 75 79 78 73 68 66 67 67 68 67 63 57 54 54 57 58 55 54 53 51 51 50 49 47 46 46 45 46 46 44 42 41 42 43 44 47 49 50 54 56 53 53 53 51 52 53 51 49 49 51 53 54 54 54 54 54 55 56 56 52 49 53 55 54 55 55 54 54 54 55 55 56 56 55 54 53
Wind_Direction
217 216 216 216 216 216 216 217 217 216 215 212 208 203 201 199 198 198 198 198 198 199 199 200 201 201 202 201 200 200 200 201 203 204 204 204 205 206 205 205 204 205 206 209 210 211 213 215 220 224 228 234 240 247 255 263 271 279 287 296 303 307 309 311 310 311 310 308 310 314 311 293 275 260 252 247 250 261 271 275 277 281 287 291 292 293 295 294
217 217 216 215 215 215 215 215 215 214 213 209 205 202 200 200 200 200 201 201 201 203 204 205 207 208 208 208 208 207 206 207 208 209 209 209 210 210 210 210 210 211 212 215 216 217 218 221 225 229 232 237 244 251 260 267 275 282 290 297 299 301 305 302 298 303 305 305 307 308 305 290 279 270 259 253 253 260 272 276 278 283 288 291 292 291 290 287
218 217 216 215 214 214 214 214 213 213 210 207 203 202 201 201 202 203 203 204 205 206 207 208 209 210 210 209 208 207 205 208 208 208 210 209 210 209 209 210 211 213 215 217 219 222 224 227 231 234 237 241 248 256 263 271 278 285 292 296 297 299 300 295 294 299 302 305 302 302 308 288 275 272 263 259 262 260 264 273 281 286 289 291 292 292 289 284
219 217 216 215 214 213 213 212 212 211 208 205 203 202 202 203 204 205 206 206 207 208 208 207 207 206 206 205 205 202 201 203 203 204 205 205 206 205 205 206 208 211 215 219 222 225 228 231 235 238 242 245 252 260 267 274 280 286 291 292 295 298 297 296 297 300 302 300 297 299 300 276 273 279 274 266 266 261 261 273 282 286 289 290 291 290 288 284
220 217 215 214 213 213 213 212 211 209 207 204 203 203 204 204 205 207 208 209 209 208 206 205 204 204 204 205 204 200 200 203 202 202 203 203 204 204 205 207 210 213 217 222 225 229 232 235 239 242 246 250 256 263 269 275 280 285 289 288 291 297 298 300 301 302 302 297 294 294 291 282 280 281 277 271 268 264 264 273 280 284 288 289 287 287 285 283
219 217 215 214 213 213 213 213 211 209 207 205 204 205 205 206 207 209 210 210 209 208 206 205 205 205 206 207 206 203 204 207 207 208 208 208 208 210 212 215 219 223 226 230 233 237 239 242 245 247 251 255 260 265 270 275 279 283 284 283 289 297 298 301 303 302 300 296 292 289 289 287 283 278 275 273 272 270 266 268 274 280 285 287 286 284 282 281
219 216 214 214 214 214 214 213 211 209 207 206 206 206 207 208 209 210 211 211 210 208 207 207 207 207 208 210 209 207 208 211 213 213 214 215 216 218 221 225 229 233 237 240 243 246 248 250 251 253 256 259 263 267 271 274 278 280 279 279 288 297 299 301 301 299 297 294 290 288 287 284 282 280 276 272 273 273 269 265 268 273 279 282 282 281 279 279
218 216 214 214 214 214 214 213 211 209 208 208 208 208 209 210 211 212 213 212 210 210 209 209 209 210 211 212 212 211 212 214 216 217 217 219 221 224 227 230 235 240 243 246 249 252 253 255 257 259 260 262 265 268 271 273 275 275 276 280 287 295 299 301 299 296 295 293 291 289 286 284 282 280 278 275 271 270 270 270 270 272 273 273 275 276 275 276
218 216 215 215 215 214 214 213 211 209 209 209 209 210 211 212 213 214 214 213 212 212 212 211 211 212 214 215 216 215 216 217 219 220 221 222 224 227 229 232 236 240 245 248 251 254 256 257 259 261 262 264 266 268 270 271 272 271 274 281 288 295 298 298 297 296 294 292 291 290 287 285 283 281 279 275 270 270 273 276 276 275 272 269 268 268 269 271
219 217 216 215 216 215 214 213 212 210 210 210 211 211 212 213 214 215 215 215 214 214 214 214 214 215 216 218 219 219 220 221 222 223 225 226 227 229 231 234 237 241 245 249 252 255 257 259 260 261 263 264 265 267 269 269 270 271 275 281 288 293 297 298 298 296 294 291 290 290 288 286 285 283 277 272 272 275 277 277 276 274 271 269 266 265 265 267
220 218 217 216 216 216 215 214 213 211 211 211 212 213 214 214 215 216 217 217 216 216 217 217 217 218 219 220 221 221 223 225 225 227 228 229 231 233 235 236 239 244 247 251 254 257 260 261 262 263 263 264 265 266 268 269 270 273 276 282 287 291 295 297 296 295 292 290 290 289 289 289 286 281 274 272 274 275 275 275 273 270 269 266 263 262 262 264
220 219 217 217 217 217 216 215 214 213 212 213 213 214 215 216 216 217 218 218 218 218 219 220 220 221 222 222 223 223 225 228 229 230 232 233 235 236 238 240 242 246 250 253 257 260 262 265 266 265 265 266 267 267 268 270 272 274 277 283 286 289 294 295 294 294 291 289 290 289 289 289 284 277 274 274 275 275 275 274 272 269 265 262 259 258 259 262
221 220 218 217 217 217 217 216 215 214 214 214 215 215 216 217 218 218 219 219 220 220 221 222 222 223 224 225 225 226 228 230 231 233 235 236 238 239 242 244 246 249 252 255 257 261 264 267 268 268 268 268 268 269 270 272 274 276 279 282 285 287 291 294 294 293 293 292 290 288 287 284 279 276 274 273 273 274 275 274 272 270 266 261 259 257 257 260
220 220 219 218 217 217 217 216 216 216 216 216 217 217 218 219 219 220 220 221 221 222 223 223 224 225 226 227 228 228 230 232 233 235 237 239 241 243 245 247 249 251 253 256 258 262 266 269 271 272 272 271 270 270 272 274 276 278 279 281 283 286 290 293 295 295 294 292 289 287 284 279 276 274 273 272 272 273 274 274 273 270 268 264 262 260 259 259
221 220 220 219 218 217 217 217 216 217 217 218 218 219 220 220 221 222 222 222 223 224 224 225 226 227 228 229 231 232 232 234 236 237 239 241 243 245 247 249 251 253 254 257 260 264 267 270 274 275 275 274 274 273 274 275 276 278 278 279 281 285 290 293 294 293 292 289 286 285 284 280 275 272 270 271 271 272 274 275 273 270 267 265 263 262 263 263
223 221 220 219 219 218 218 218 217 217 218 219 220 221 221 222 223 224 224 225 225 226 226 227 228 228 230 231 232 234 236 237 238 239 241 243 245 247 249 251 253 255 256 259 261 264 268 271 274 276 277 278 278 278 276 276 276 275 275 278 283 286 290 292 291 289 288 286 284 283 283 281 276 270 268 269 269 271 273 274 273 269 266 265 263 263 264 265
225 224 222 220 220 220 220 219 219 219 219 220 221 222 223 224 225 226 226 227 228 228 229 229 230 230 232 233 234 236 238 239 240 242 243 244 247 249 251 253 255 256 258 260 262 265 268 271 274 276 278 280 281 281 278 275 274 273 275 280 284 287 290 290 289 288 287 284 281 280 280 281 278 273 269 269 269 270 271 272 271 270 267 265 263 262 263 264
227 226 225 223 222 221 221 221 221 221 221 221 222 223 224 225 226 228 228 229 230 230 231 231 232 233 234 234 236 238 240 241 242 243 244 245 247 249 251 253 256 258 260 262 263 265 267 270 273 276 279 281 280 278 275 274 274 276 279 281 283 287 289 290 290 288 286 284 282 280 278 276 276 276 275 273 271 269 269 270 270 270 268 266 264 263 263 264
228 228 227 226 225 224 223 223 223 223 223 223 224 225 226 227 228 229 230 231 232 232 233 233 234 235 235 236 237 238 241 243 244 245 246 247 248 249 251 254 256 258 261 263 264 265 267 270 273 278 281 279 277 275 274 274 276 278 280 282 283 285 287 289 289 286 284 283 282 281 278 275 274 276 277 276 274 273 273 273 270 268 267 266 266 266 266 266
229 229 228 228 228 227 226 225 225 225 225 225 226 227 228 229 230 231 231 232 233 234 234 235 235 236 237 237 238 239 241 244 246 246 247 248 249 250 252 253 256 258 260 262 264 265 268 271 274 278 280 277 276 275 275 276 277 278 280 282 284 286 287 288 286 285 284 283 281 280 278 275 274 274 274 273 274 276 279 278 274 271 268 268 268 268 268 269
230 230 229 229 229 229 229 228 228 227 227 227 228 229 230 231 232 232 233 233 234 235 236 236 236 237 238 239 240 241 242 244 246 248 249 250 251 251 252 254 256 258 260 262 264 266 269 271 275 277 276 276 277 276 276 277 277 278 280 282 285 286 286 285 284 284 284 283 282 280 278 276 273 271 271 272 273 274 276 277 276 273 269 269 270 271 271 271
232 231 231 230 230 230 230 230 230 230 229 230 230 231 232 233 234 234 235 235 235 235 236 237 238 238 239 240 241 242 243 244 246 248 249 250 251 253 253 255 256 258 260 262 264 267 269 271 274 275 275 277 278 278 278 278 278 279 281 283 284 284 283 282 283 283 283 282 281 280 278 276 273 271 271 272 272 273 275 277 278 275 270 267 267 270 272 273
232 232 232 232 231 231 231 232 232 232 232 232 233 234 235 235 235 236 236 236 236 236 237 238 239 239 239 241 242 243 243 244 246 247 249 251 252 254 255 256 258 259 261 263 265 266 268 271 272 273 276 277 278 279 279 280 280 281 282 283 282 282 281 281 282 282 282 282 281 279 277 275 273 272 271 271 272 273 276 278 279 277 273 270 267 268 271 273
232 233 233 233 233 232 232 232 232 233 233 234 236 237 237 237 237 238 238 238 236 236 237 238 239 240 240 241 243 244 245 245 247 248 249 251 253 255 256 258 258 260 262 264 266 267 268 270 271 273 275 277 278 278 279 281 282 283 283 282 281 280 280 281 281 280 281 281 281 280 277 274 271 270 270 271 273 274 276 278 278 276 274 271 270 270 271 272
232 233 233 234 234 234 233 233 233 233 234 235 236 237 238 239 239 239 240 240 238 235 237 239 240 241 241 242 243 245 246 247 248 249 250 252 254 255 257 258 260 262 264 266 266 266 267 269 271 273 275 276 277 277 279 281 282 282 282 281 281 280 280 281 281 280 280 280 280 280 278 276 271 269 271 271 271 272 274 277 278 277 275 272 271 270 271 272
232 233 234 234 234 234 234 234 234 235 235 235 236 237 238 239 240 240 241 242 239 235 236 239 241 242 242 244 244 246 247 247 248 250 251 253 254 256 258 259 261 263 264 266 266 266 266 269 271 273 275 275 275 277 279 281 281 280 280 280 279 279 279 279 279 279 280 280 280 279 279 279 273 268 271 270 268 269 273 277 276 275 274 273 272 273 274 275
233 233 234 234 235 235 235 234 234 235 236 236 237 237 238 239 240 240 241 243 240 235 236 238 240 242 243 244 246 247 247 247 248 250 251 253 255 256 258 259 261 262 264 265 266 266 267 269 271 272 273 274 276 279 280 280 279 279 279 278 277 277 278 278 278 278 278 279 279 278 281 282 277 270 268 265 265 269 275 278 275 271 271 270 271 272 273 274
232 233 233 234 235 235 235 235 234 235 236 236 237 238 238 239 240 240 241 243 240 237 237 238 239 241 243 244 245 247 248 248 249 250 251 253 254 255 257 259 261 262 263 265 266 267 269 270 270 271 273 275 278 280 279 278 277 277 277 276 276 277 277 277 277 277 277 277 276 278 283 283 279 276 269 262 264 271 274 274 272 271 270 270 270 271 272 272
234 233 233 234 234 235 235 236 236 236 236 236 237 238 239 239 240 240 241 242 241 240 240 239 239 241 243 245 246 247 249 250 251 251 252 253 254 255 257 259 261 262 263 265 267 268 269 270 271 272 273 275 278 278 277 276 275 275 275 275 275 276 276 276 276 277 277 275 275 280 283 281 279 276 272 269 270 272 272 271 270 270 270 270 271 272 272 272
237 236 234 234 234 235 235 235 235 236 236 236 236 237 238 239 239 240 241 241 241 243 243 242 241 241 242 244 246 247 248 250 251 252 253 254 255 256 257 258 260 261 263 265 266 267 269 271 272 273 274 276 276 275 273 273 273 274 275 275 275 275 275 275 275 275 274 273 277 282 281 279 277 275 275 277 275 272 271 272 271 271 272 273 273 273 272 272
237 238 237 236 235 234 235 235 234 235 235 236 236 236 237 238 238 239 240 242 243 245 246 245 244 243 243 245 247 248 249 250 251 252 254 254 256 256 257 258 260 262 264 265 266 267 269 270 272 274 274 275 274 273 272 272 273 275 275 275 275 274 273 272 272 272 272 276 280 282 279 276 274 275 281 283 282 278 273 271 272 273 275 276 276 275 274 272
238 240 240 239 236 234 235 235 234 234 234 235 237 237 237 237 237 239 241 243 244 244 246 247 246 245 245 245 246 247 248 249 250 251 253 254 255 256 257 258 260 262 263 265 266 267 268 270 272 273 273 274 275 275 275 274 274 274 273 272 271 271 270 270 270 272 274 278 282 280 278 274 272 276 283 286 286 284 279 276 275 274 275 275 276 276 276 274
240 241 242 242 239 235 234 234 234 234 233 235 237 237 237 237 238 241 243 243 244 245 246 247 248 247 247 246 246 247 248 249 250 251 252 254 255 256 257 259 260 261 263 265 267 269 270 270 270 272 273 274 273 273 272 271 270 268 266 267 267 268 269 271 273 275 276 278 279 277 276 274 275 279 283 284 282 282 282 282 279 276 276 275 276 276 275 274
238 240 241 242 240 235 234 234 234 235 234 234 236 237 238 238 239 242 244 244 245 247 248 250 250 250 250 249 248 248 249 250 251 253 253 254 256 257 258 260 261 262 263 265 267 268 269 270 270 272 272 272 271 269 268 267 265 265 264 264 264 266 270 273 275 276 276 277 277 276 275 275 278 281 281 278 277 280 283 284 283 281 280 279 279 279 278 276
239 239 240 241 239 236 235 234 234 236 236 236 236 237 238 240 241 243 245 246 246 247 249 250 251 251 251 251 250 250 250 250 251 253 254 254 256 257 259 260 261 262 263 264 266 268 269 269 270 270 269 269 268 266 264 263 263 263 262 262 264 267 270 273 274 275 277 278 277 276 275 277 280 280 277 277 280 283 284 284 286 286 285 284 282 282 281 279
238 239 240 240 240 238 236 234 234 236 237 238 238 238 238 240 243 245 247 247 247 248 249 251 252 253 253 253 253 253 252 252 252 253 254 256 257 257 259 261 262 264 264 265 266 266 267 268 267 267 266 265 265 265 264 262 261 261 261 263 266 268 268 269 272 274 276 277 277 277 277 278 280 278 278 282 286 286 285 284 285 288 289 288 285 283 282 280
233 236 237 237 237 237 235 235 235 236 238 240 241 242 242 242 242 244 246 247 247 247 249 250 252 254 255 255 256 256 256 255 255 255 256 257 258 258 259 260 262 263 264 265 265 264 264 265 264 264 264 263 263 263 262 260 259 260 262 264 264 265 266 268 271 274 275 276 276 276 278 279 280 280 283 287 287 285 284 283 285 289 290 288 286 284 282 280
229 233 234 233 233 234 237 238 238 239 240 243 244 244 243 242 241 241 244 246 247 246 246 247 250 252 253 255 255 256 257 256 256 256 257 257 256 256 257 258 259 261 263 264 263 263 262 262 262 262 262 261 260 260 259 259 259 260 262 263 263 265 266 268 270 273 274 275 276 278 280 280 279 281 284 284 282 282 283 285 288 290 287 285 284 282 280 278
226 229 232 232 231 233 236 240 242 242 242 244 246 245 243 242 240 240 242 244 246 246 245 245 248 250 252 253 254 255 256 257 256 256 256 257 256 254 255 257 258 259 261 261 261 262 261 260 260 259 259 259 259 258 258 259 260 261 262 262 262 264 265 266 268 269 271 275 278 282 282 279 278 280 280 280 281 283 285 287 290 288 285 282 280 278 276 274
227 228 229 229 230 233 235 238 242 244 244 245 247 246 245 244 241 239 241 243 245 246 246 245 245 248 250 252 252 254 256 258 258 258 258 257 257 256 256 256 256 256 258 259 260 260 260 259 258 259 259 258 259 260 260 260 260 259 258 258 259 261 263 264 265 266 271 277 282 285 281 277 277 279 279 283 288 289 289 289 289 289 285 281 277 275 273 269
229 229 228 227 230 232 233 235 238 242 244 245 245 246 246 244 242 239 239 241 245 247 247 246 245 245 248 250 252 253 255 257 258 259 259 257 257 256 255 255 254 254 257 259 259 260 262 260 258 258 257 257 260 261 259 257 256 255 256 258 258 259 260 261 264 269 274 278 281 282 278 275 277 280 282 289 294 294 292 291 291 290 285 281 277 273 269 264
230 229 227 227 229 231 233 235 236 239 242 243 243 245 246 245 243 241 240 240 242 246 247 245 244 245 245 247 250 251 252 253 255 256 256 256 255 255 254 253 252 252 254 256 257 259 262 261 256 254 254 256 258 259 259 258 257 257 257 256 256 258 260 263 268 273 275 275 274 275 275 275 276 279 284 291 294 295 294 292 292 289 285 281 277 272 266 261
230 229 227 227 228 229 232 235 236 237 239 240 242 244 245 245 244 243 243 243 243 246 247 244 242 243 244 245 247 249 250 252 253 254 256 257 257 256 256 254 253 252 251 251 254 257 260 261 258 256 256 256 258 259 259 259 258 257 257 257 259 262 263 264 267 269 269 269 271 272 273 274 276 280 286 290 292 293 294 292 289 287 284 281 276 272 267 262
230 229 227 227 227 227 230 234 236 238 238 238 241 244 244 243 241 241 243 244 244 245 247 244 242 243 245 246 247 248 250 252 254 255 256 257 257 257 258 257 255 252 250 249 253 257 261 263 261 258 256 255 255 256 256 257 257 258 260 261 262 262 261 262 264 267 267 266 268 269 270 274 279 282 285 289 292 294 294 291 287 284 282 280 276 273 270 266
230 228 225 225 226 227 229 232 235 238 238 238 240 243 244 242 240 241 242 243 242 242 244 244 242 242 243 244 246 248 249 251 254 256 256 256 255 256 257 257 255 253 250 250 253 257 262 263 261 258 257 254 253 255 259 261 261 261 260 259 259 258 259 261 262 264 264 264 265 267 270 275 279 281 284 290 295 296 294 289 286 284 282 278 276 275 273 272
230 229 225 223 225 227 228 228 232 235 235 236 239 241 242 242 241 242 242 242 241 241 242 242 241 241 241 242 243 245 247 248 250 252 254 254 254 255 257 258 258 255 252 252 255 258 263 264 261 259 260 257 255 258 262 263 261 259 258 256 255 255 256 258 258 260 263 267 267 268 272 275 274 277 285 291 296 296 293 289 287 286 283 278 273 273 274 273
230 229 226 222 223 228 229 226 228 233 234 236 238 240 242 244 243 243 242 241 239 239 239 240 240 240 241 243 245 247 248 247 247 248 250 253 255 256 258 260 260 258 254 254 255 259 263 264 261 261 262 259 257 259 262 262 260 259 257 254 253 253 253 256 258 261 266 269 269 269 272 273 272 277 284 288 292 296 295 291 287 284 281 277 273 273 273 272
230 230 228 225 223 226 230 229 227 228 232 234 236 239 242 243 241 238 238 237 236 236 236 236 237 240 242 244 246 248 248 247 247 248 249 251 254 257 260 261 261 259 256 255 256 259 263 264 262 261 261 258 256 257 260 261 261 260 257 255 254 253 254 256 260 263 266 268 268 269 272 274 274 277 280 284 292 295 293 288 283 280 278 276 274 273 273 272
230 229 228 228 227 225 227 231 231 229 229 231 234 237 240 239 236 233 234 235 234 233 234 236 238 241 243 242 243 243 243 244 246 249 251 253 255 258 261 262 262 260 258 257 258 260 263 263 261 260 259 256 255 257 259 259 259 258 256 255 254 255 257 258 259 261 264 266 267 270 274 273 271 274 281 288 291 289 284 280 277 277 276 274 273 273 273 272
228 229 227 228 230 229 225 226 230 231 230 230 231 233 234 233 231 232 234 235 235 235 237 241 244 244 240 239 240 240 239 243 247 249 252 254 255 255 257 259 260 260 258 258 258 259 261 261 260 261 262 257 255 258 259 258 257 256 254 254 254 256 256 256 257 260 265 268 269 272 272 268 268 277 284 285 282 282 282 281 279 277 276 273 273 275 275 273
226 227 226 226 229 231 229 226 226 229 231 232 231 230 229 229 230 235 240 242 243 244 244 244 245 244 241 240 242 241 239 242 246 247 248 250 251 252 253 255 255 255 255 256 256 256 259 261 261 263 263 259 256 258 258 257 258 256 253 254 256 255 255 257 261 264 267 268 269 270 268 266 271 279 280 278 280 283 285 284 279 276 275 274 274 275 275 273
226 225 224 225 227 230 231 229 227 226 227 231 234 234 234 234 236 240 245 247 247 247 248 245 240 238 240 242 244 243 241 243 245 245 244 246 247 247 248 248 248 247 249 252 255 257 259 260 261 261 262 261 258 258 257 257 257 256 255 258 259 257 259 262 263 264 266 268 269 269 269 270 275 278 278 279 282 282 281 279 276 274 273 272 272 274 275 275
Height
5823 5825 5827 5829 5831 5833 5835 5837 5839 5841 5842 5844 5845 5847 5848 5850 5851 5852 5853 5854 5856 5857 5858 5859 5860 5861 5862 5863 5864 5865 5866 5868 5868 5870 5871 5872 5873 5874 5875 5876 5876 5877 5878 5879 5880 5881 5882 5883 5884 5885 5885 5886 5886 5887 5887 5888 5888 5888 5889 5889 5890 5889 5889 5889 5888 5888 5888 5888 5888 5888 5888 5887 5887 5887 5888 5888 5888 5888 5888 5888 5888 5888 5889 5889 5888 5888 5887 5887
5821 5822 5824 5826 5828 5831 5833 5835 5837 5838 5840 5842 5844 5845 5847 5848 5850 5851 5852 5853 5854 5855 5857 5858 5859 5860 5861 5862 5863 5864 5866 5866 5867 5869 5870 5871 5872 5873 5874 5875 5875 5876 5877 5878 5879 5880 5881 5882 5883 5884 5884 5885 5885 5886 5886 5887 5887 5887 5888 5888 5888 5888 5888 5888 5887 5888 5887 5887 5887 5887 5887 5887 5886 5886 5887 5887 5887 5888 5887 5887 5887 5887 5887 5887 5887 5887 5887 5886
5818 5820 5822 5824 5826 5828 5830 5832 5834 5836 5838 5840 5842 5843 5845 5847 5848 5849 5850 5852 5853 5854 5855 5857 5858 5859 5860 5861 5862 5864 5865 5866 5867 5868 5869 5870 5871 5872 5873 5874 5874 5875 5876 5877 5878 5879 5880 5881 5882 5883 5883 5884 5885 5885 5885 5886 5886 5886 5887 5887 5886 5887 5887 5886 5886 5887 5887 5886 5885 5885 5886 5886 5885 5885 5886 5886 5886 5887 5886 5885 5885 5886 5886 5886 5886 5885 5885 5885
5816 5817 5819 5821 5823 5825 5827 5829 5831 5833 5835 5837 5839 5841 5843 5845 5846 5848 5849 5850 5851 5853 5854 5855 5857 5858 5859 5860 5861 5863 5864 5865 5866 5867 5868 5869 5870 5871 5872 5872 5873 5874 5875 5876 5877 5878 5879 5880 5881 5882 5882 5883 5884 5884 5884 5884 5885 5885 5886 5885 5885 5885 5885 5885 5885 5885 5886 5885 5884 5884 5885 5885 5884 5884 5885 5885 5885 5886 5885 5885 5884 5884 5884 5885 5884 5884 5884 5884
5813 5815 5817 5819 5821 5823 5825 5827 5829 5831 5833 5835 5837 5839 5841 5842 5844 5846 5847 5848 5849 5851 5852 5854 5855 5857 5858 5859 5860 5862 5863 5864 5865 5866 5867 5868 5869 5870 5870 5871 5872 5873 5874 5875 5876 5877 5878 5879 5880 5880 5881 5882 5883 5882 5883 5883 5883 5884 5884 5884 5884 5884 5883 5883 5883 5883 5884 5884 5883 5883 5883 5884 5884 5884 5884 5884 5884 5884 5885 5884 5883 5883 5883 5883 5883 5883 5883 5883
5810 5812 5814 5816 5818 5820 5823 5825 5827 5829 5831 5833 5834 5836 5838 5840 5842 5844 5845 5846 5848 5849 5851 5852 5854 5855 5856 5857 5859 5860 5862 5862 5864 5865 5866 5867 5867 5868 5869 5870 5871 5872 5873 5874 5875 5875 5876 5877 5878 5879 5880 5881 5881 5881 5881 5882 5882 5883 5882 5882 5883 5883 5882 5882 5882 5882 5882 5882 5882 5882 5882 5883 5883 5883 5883 5882 5882 5882 5883 5883 5883 5882 5881 5881 5881 5881 5881 5882
5806 5809 5811 5813 5815 5818 5820 5822 5824 5826 5828 5830 5832 5834 5836 5838 5839 5841 5843 5845 5846 5848 5849 5851 5852 5853 5855 5856 5858 5859 5860 5861 5862 5864 5865 5865 5866 5867 5868 5869 5870 5871 5872 5873 5873 5874 5875 5876 5876 5877 5878 5879 5879 5879 5880 5880 5881 5881 5880 5880 5881 5881 5880 5880 5880 5880 5880 5881 5881 5881 5881 5881 5881 5881 5881 5881 5881 5880 5881 5882 5882 5881 5881 5880 5879 5879 5880 5880
5803 5805 5808 5810 5812 5815 5817 5819 5821 5823 5826 5828 5830 5832 5833 5835 5837 5839 5841 5843 5844 5846 5848 5849 5850 5852 5853 5854 5856 5858 5859 5860 5861 5862 5863 5864 5865 5866 5867 5867 5868 5869 5870 5871 5872 5873 5873 5874 5874 5875 5876 5877 5877 5878 5878 5878 5879 5879 5878 5878 5879 5879 5879 5879 5879 5879 5879 5879 5879 5879 5879 5879 5880 5880 5880 5879 5879 5878 5878 5880 5880 5880 5879 5879 5878 5878 5878 5879
5800 5802 5804 5807 5809 5811 5814 5816 5818 5820 5823 5825 5827 5829 5831 5833 5835 5837 5839 5840 5842 5844 5846 5847 5849 5850 5851 5853 5854 5856 5857 5858 5859 5860 5861 5862 5863 5864 5865 5866 5867 5868 5869 5869 5870 5871 5871 5872 5873 5873 5874 5875 5876 5876 5876 5877 5877 5877 5877 5877 5877 5878 5877 5877 5877 5877 5877 5877 5877 5877 5877 5877 5877 5878 5878 5876 5876 5876 5877 5878 5878 5878 5877 5877 5877 5877 5877 5877
5796 5799 5801 5803 5806 5808 5810 5813 5815 5817 5819 5821 5824 5826 5828 5830 5832 5834 5836 5838 5840 5842 5843 5845 5846 5848 5849 5851 5852 5854 5855 5856 5857 5859 5860 5861 5862 5862 5863 5864 5865 5866 5867 5868 5868 5869 5869 5870 5871 5872 5872 5873 5874 5874 5874 5875 5875 5874 5875 5875 5875 5875 5875 5875 5876 5876 5876 5875 5875 5875 5875 5875 5875 5876 5875 5873 5874 5874 5875 5876 5876 5876 5875 5875 5875 5875 5875 5875
5793 5795 5798 5800 5803 5805 5807 5809 5811 5814 5816 5818 5820 5823 5825 5827 5829 5831 5833 5835 5837 5839 5841 5843 5844 5846 5847 5849 5850 5852 5853 5854 5856 5857 5858 5859 5860 5861 5862 5863 5863 5864 5865 5866 5867 5867 5868 5868 5869 5870 5870 5870 5871 5872 5871 5872 5872 5872 5873 5873 5873 5873 5874 5874 5874 5874 5874 5873 5873 5873 5873 5873 5873 5873 5872 5871 5872 5873 5873 5873 5874 5874 5873 5873 5873 5873 5873 5874
5790 5792 5794 5797 5799 5802 5804 5806 5808 5811 5813 5815 5817 5819 5821 5824 5826 5828 5830 5832 5834 5837 5838 5840 5842 5843 5845 5846 5848 5850 5851 5852 5854 5855 5856 5857 5858 5859 5860 5860 5862 5862 5863 5864 5865 5865 5866 5866 5867 5867 5868 5869 5869 5869 5869 5870 5870 5870 5871 5871 5870 5871 5872 5872 5871 5872 5871 5871 5871 5871 5872 5872 5871 5871 5870 5870 5871 5871 5871 5871 5871 5872 5871 5871 5872 5872 5872 5872
5786 5789 5791 5793 5796 5798 5801 5803 5805 5807 5810 5812 5814 5816 5818 5820 5823 5825 5827 5829 5831 5834 5835 5837 5839 5841 5842 5844 5845 5847 5848 5850 5852 5853 5854 5855 5855 5857 5858 5859 5860 5860 5861 5862 5862 5863 5864 5864 5865 5865 5866 5867 5867 5867 5867 5867 5868 5868 5868 5868 5867 5868 5870 5870 5869 5869 5869 5869 5869 5868 5870 5870 5868 5868 5868 5868 5869 5869 5868 5869 5869 5869 5869 5869 5870 5870 5870 5870
5782 5785 5787 5789 5792 5794 5797 5799 5802 5804 5806 5808 5811 5813 5815 5817 5820 5822 5824 5826 5828 5830 5832 5834 5836 5838 5839 5841 5843 5845 5846 5847 5849 5850 5851 5852 5853 5854 5855 5856 5857 5858 5859 5859 5860 5861 5862 5862 5863 5863 5864 5864 5865 5865 5865 5865 5866 5865 5866 5865 5865 5865 5867 5868 5867 5867 5866 5866 5866 5865 5867 5868 5867 5866 5866 5866 5866 5866 5866 5867 5867 5867 5867 5867 5868 5868 5868 5868
5778 5781 5783 5785 5788 5790 5793 5795 5798 5800 5802 5805 5807 5810 5812 5815 5817 5819 5821 5823 5825 5827 5829 5831 5833 5835 5837 5838 5840 5842 5843 5845 5846 5847 5849 5850 5851 5852 5853 5854 5855 5856 5856 5857 5858 5859 5860 5860 5861 5861 5861 5862 5862 5863 5863 5863 5863 5863 5862 5862 5862 5863 5864 5866 5865 5864 5864 5863 5863 5862 5863 5865 5864 5864 5863 5864 5864 5864 5864 5864 5865 5865 5865 5865 5865 5865 5865 5865
5775 5777 5779 5782 5784 5786 5789 5791 5794 5796 5798 5801 5804 5806 5809 5811 5813 5815 5818 5820 5822 5824 5826 5828 5830 5832 5833 5835 5837 5839 5840 5842 5843 5844 5846 5847 5848 5849 5850 5851 5852 5853 5854 5855 5856 5857 5857 5858 5858 5859 5859 5859 5860 5860 5860 5860 5861 5860 5859 5859 5860 5860 5861 5862 5862 5862 5861 5860 5860 5859 5860 5861 5861 5861 5861 5861 5862 5862 5862 5862 5862 5863 5863 5863 5863 5863 5863 5862
5771 5773 5775 5778 5780 5782 5785 5787 5790 5792 5794 5797 5800 5803 5805 5808 5810 5812 5814 5816 5818 5820 5822 5824 5826 5828 5830 5832 5834 5836 5837 5838 5840 5841 5843 5844 5845 5846 5847 5849 5849 5850 5851 5852 5853 5854 5855 5855 5856 5856 5857 5857 5857 5858 5857 5857 5857 5856 5856 5858 5858 5857 5858 5858 5859 5859 5858 5857 5857 5856 5857 5858 5857 5857 5858 5859 5859 5860 5860 5860 5860 5860 5860 5860 5860 5860 5860 5860
5766 5769 5771 5774 5776 5778 5781 5783 5785 5788 5791 5794 5796 5799 5801 5804 5806 5808 5810 5812 5814 5816 5818 5820 5823 5825 5827 5829 5831 5832 5833 5834 5836 5838 5840 5841 5842 5843 5844 5846 5846 5848 5849 5850 5851 5851 5852 5853 5853 5854 5855 5855 5855 5855 5853 5853 5854 5853 5854 5855 5855 5855 5854 5854 5855 5855 5854 5854 5853 5853 5854 5856 5854 5854 5855 5855 5856 5856 5857 5857 5857 5858 5857 5857 5857 5858 5858 5857
5761 5764 5767 5769 5772 5774 5776 5779 5781 5784 5787 5790 5792 5795 5797 5799 5802 5804 5806 5808 5810 5812 5814 5816 5819 5821 5823 5825 5827 5829 5830 5831 5833 5835 5836 5837 5839 5840 5841 5842 5843 5845 5846 5847 5847 5848 5849 5850 5851 5851 5852 5852 5852 5851 5850 5850 5851 5850 5850 5851 5852 5852 5852 5851 5850 5850 5850 5850 5849 5849 5850 5852 5852 5851 5852 5851 5851 5852 5854 5854 5855 5855 5855 5854 5854 5854 5855 5855
5757 5759 5762 5765 5767 5770 5772 5775 5777 5780 5783 5786 5788 5791 5793 5795 5797 5799 5801 5804 5806 5807 5809 5813 5815 5817 5819 5821 5823 5825 5826 5827 5829 5831 5832 5834 5835 5837 5838 5839 5840 5841 5842 5843 5844 5845 5846 5847 5848 5849 5848 5848 5848 5848 5848 5847 5848 5847 5847 5847 5848 5849 5849 5848 5846 5845 5846 5846 5846 5846 5845 5848 5850 5849 5849 5848 5848 5849 5850 5850 5851 5852 5852 5851 5851 5851 5851 5852
5752 5754 5757 5760 5762 5765 5767 5770 5773 5775 5779 5781 5784 5786 5788 5790 5792 5794 5796 5798 5800 5802 5805 5808 5810 5813 5815 5817 5819 5821 5823 5824 5825 5826 5828 5830 5831 5832 5834 5835 5837 5838 5839 5839 5840 5842 5843 5844 5845 5845 5844 5844 5845 5845 5845 5845 5845 5844 5844 5844 5845 5845 5845 5844 5842 5842 5842 5841 5842 5842 5841 5844 5846 5846 5846 5845 5845 5847 5847 5847 5848 5849 5849 5849 5848 5847 5848 5848
5746 5749 5752 5754 5757 5760 5763 5765 5768 5771 5775 5777 5780 5781 5783 5784 5786 5788 5790 5792 5795 5798 5800 5803 5805 5809 5811 5813 5815 5817 5819 5820 5821 5822 5824 5826 5827 5828 5830 5832 5833 5834 5835 5836 5837 5839 5840 5841 5841 5841 5840 5841 5841 5842 5842 5841 5841 5841 5841 5841 5841 5841 5840 5840 5839 5838 5837 5836 5837 5838 5837 5839 5842 5842 5842 5842 5842 5843 5844 5844 5844 5844 5845 5846 5845 5844 5844 5845
5740 5744 5746 5749 5752 5754 5757 5760 5763 5767 5770 5773 5775 5776 5777 5779 5781 5783 5784 5786 5789 5792 5796 5798 5801 5804 5807 5808 5810 5813 5814 5816 5817 5818 5819 5821 5822 5823 5825 5828 5829 5830 5831 5832 5834 5835 5836 5837 5837 5837 5837 5837 5838 5838 5838 5837 5837 5837 5837 5837 5837 5837 5836 5836 5836 5834 5832 5832 5832 5833 5832 5834 5838 5838 5839 5839 5838 5840 5840 5840 5841 5840 5840 5841 5841 5841 5841 5841
5735 5738 5740 5744 5746 5749 5752 5755 5759 5764 5766 5768 5769 5770 5772 5773 5775 5776 5777 5779 5783 5788 5791 5793 5795 5798 5802 5804 5806 5808 5809 5811 5813 5814 5816 5817 5818 5819 5821 5823 5824 5826 5827 5828 5829 5831 5833 5833 5832 5833 5833 5834 5835 5835 5834 5834 5833 5833 5833 5833 5833 5833 5832 5832 5831 5829 5828 5828 5828 5828 5826 5828 5834 5834 5835 5837 5835 5835 5836 5837 5837 5836 5836 5836 5837 5837 5837 5837
5730 5732 5735 5738 5740 5744 5747 5750 5756 5759 5760 5762 5764 5765 5766 5767 5768 5770 5771 5772 5776 5783 5787 5788 5791 5793 5796 5798 5801 5803 5804 5806 5809 5810 5812 5813 5814 5815 5816 5818 5820 5822 5823 5823 5824 5826 5829 5829 5828 5829 5829 5830 5830 5831 5831 5830 5829 5829 5829 5829 5828 5828 5828 5827 5827 5825 5824 5823 5824 5825 5821 5822 5829 5831 5832 5834 5832 5831 5832 5833 5833 5832 5832 5832 5832 5833 5833 5833
5724 5726 5729 5731 5735 5738 5742 5748 5753 5752 5754 5758 5758 5758 5759 5760 5762 5763 5766 5765 5768 5778 5782 5784 5787 5788 5791 5793 5796 5798 5798 5801 5805 5806 5807 5808 5809 5811 5812 5814 5816 5817 5818 5818 5819 5821 5824 5824 5824 5824 5825 5826 5827 5827 5827 5826 5825 5824 5825 5825 5824 5823 5823 5823 5823 5821 5819 5818 5819 5821 5818 5816 5822 5828 5830 5830 5828 5828 5829 5829 5829 5828 5827 5828 5827 5828 5828 5829
5717 5720 5723 5725 5729 5732 5738 5744 5745 5746 5751 5752 5750 5751 5752 5754 5755 5757 5760 5758 5761 5773 5777 5780 5782 5783 5786 5788 5790 5792 5792 5796 5800 5800 5802 5804 5805 5807 5807 5809 5811 5813 5813 5813 5814 5817 5819 5820 5820 5820 5820 5821 5823 5824 5823 5822 5820 5820 5821 5821 5820 5819 5819 5818 5818 5817 5815 5814 5813 5816 5817 5812 5814 5824 5828 5825 5824 5825 5826 5826 5825 5824 5823 5823 5823 5824 5824 5824
5710 5713 5716 5720 5723 5727 5732 5736 5738 5743 5746 5744 5743 5745 5746 5748 5749 5752 5753 5749 5756 5768 5771 5774 5778 5778 5780 5782 5783 5785 5786 5791 5794 5795 5798 5799 5800 5802 5803 5805 5807 5808 5808 5808 5810 5812 5813 5814 5815 5816 5817 5818 5819 5819 5819 5818 5816 5816 5817 5816 5815 5815 5814 5813 5813 5812 5811 5810 5808 5813 5815 5809 5807 5816 5822 5821 5822 5823 5823 5822 5820 5820 5819 5819 5819 5819 5820 5820
5703 5706 5710 5713 5716 5720 5725 5730 5736 5739 5737 5737 5737 5738 5740 5741 5742 5745 5743 5743 5754 5762 5763 5768 5773 5773 5775 5776 5777 5780 5783 5786 5787 5790 5793 5793 5795 5798 5799 5801 5802 5802 5803 5803 5806 5807 5807 5808 5810 5811 5813 5814 5815 5815 5814 5813 5812 5811 5812 5812 5811 5810 5810 5809 5808 5808 5806 5803 5805 5811 5813 5807 5801 5807 5815 5817 5819 5819 5818 5818 5817 5816 5815 5814 5814 5814 5814 5815
5696 5700 5703 5705 5709 5715 5719 5725 5731 5731 5729 5730 5730 5732 5733 5733 5736 5736 5733 5741 5755 5756 5755 5761 5766 5768 5770 5771 5772 5775 5778 5781 5782 5784 5786 5788 5791 5793 5795 5796 5796 5797 5798 5799 5801 5801 5802 5804 5804 5806 5808 5809 5809 5809 5809 5809 5807 5807 5808 5807 5807 5806 5805 5804 5802 5803 5800 5797 5803 5809 5809 5805 5796 5799 5808 5813 5815 5815 5813 5813 5812 5811 5810 5809 5809 5809 5809 5810
5689 5693 5695 5699 5705 5709 5712 5720 5724 5723 5722 5723 5723 5724 5725 5726 5728 5725 5728 5744 5754 5750 5748 5753 5758 5763 5765 5767 5768 5770 5773 5776 5777 5779 5780 5783 5785 5787 5789 5791 5792 5793 5793 5794 5796 5797 5798 5799 5799 5800 5802 5803 5803 5804 5804 5804 5804 5803 5803 5803 5802 5800 5799 5798 5797 5797 5794 5794 5801 5804 5803 5801 5793 5795 5803 5806 5808 5810 5809 5809 5808 5807 5806 5804 5803 5803 5803 5804
5683 5686 5689 5693 5697 5701 5707 5714 5715 5713 5714 5716 5715 5716 5718 5718 5714 5716 5731 5746 5747 5741 5740 5744 5750 5756 5758 5761 5763 5765 5767 5769 5771 5773 5775 5777 5778 5781 5784 5785 5787 5788 5787 5789 5791 5792 5794 5794 5795 5795 5796 5798 5798 5799 5799 5800 5800 5799 5798 5798 5797 5795 5793 5792 5792 5792 5791 5792 5796 5797 5795 5793 5791 5794 5800 5801 5801 5802 5803 5805 5804 5803 5802 5800 5799 5798 5797 5798
5677 5680 5682 5685 5690 5695 5702 5705 5704 5703 5707 5709 5707 5707 5709 5704 5704 5717 5733 5740 5737 5733 5734 5737 5743 5747 5750 5753 5756 5759 5761 5762 5765 5767 5769 5771 5772 5776 5778 5780 5782 5783 5783 5786 5786 5786 5788 5788 5789 5790 5791 5793 5793 5794 5794 5794 5794 5793 5793 5793 5791 5790 5788 5787 5788 5788 5788 5789 5790 5789 5788 5786 5787 5794 5797 5797 5797 5796 5797 5800 5800 5799 5797 5796 5795 5794 5793 5793
5671 5673 5675 5680 5684 5689 5693 5695 5695 5696 5699 5701 5699 5697 5695 5692 5702 5720 5728 5730 5731 5729 5729 5733 5736 5738 5741 5745 5749 5753 5755 5757 5760 5762 5763 5765 5767 5770 5773 5775 5777 5779 5780 5781 5781 5781 5781 5781 5784 5786 5787 5787 5787 5788 5788 5788 5787 5787 5788 5788 5786 5786 5785 5784 5784 5784 5783 5783 5783 5783 5781 5780 5784 5790 5792 5792 5793 5794 5794 5794 5794 5794 5794 5792 5791 5790 5789 5789
5663 5666 5669 5673 5676 5681 5685 5687 5689 5689 5690 5693 5690 5685 5683 5687 5704 5718 5721 5724 5726 5723 5724 5726 5726 5729 5732 5736 5741 5745 5748 5751 5754 5755 5756 5759 5762 5765 5768 5770 5772 5773 5775 5776 5776 5776 5776 5776 5779 5780 5781 5781 5781 5781 5782 5782 5782 5782 5782 5781 5781 5784 5784 5781 5779 5779 5779 5778 5776 5776 5776 5777 5780 5783 5785 5787 5789 5790 5790 5788 5788 5789 5788 5788 5787 5786 5785 5784
5656 5658 5661 5664 5670 5676 5679 5679 5682 5682 5683 5684 5678 5672 5676 5689 5705 5713 5715 5718 5717 5717 5720 5719 5719 5722 5724 5727 5732 5736 5740 5744 5747 5749 5751 5753 5756 5760 5763 5766 5767 5768 5770 5771 5771 5771 5771 5771 5772 5773 5774 5775 5774 5775 5777 5777 5776 5775 5775 5777 5778 5780 5779 5777 5775 5775 5775 5772 5770 5770 5771 5774 5775 5776 5779 5782 5783 5785 5784 5783 5784 5783 5782 5782 5782 5781 5781 5780
5647 5650 5653 5659 5666 5670 5671 5673 5675 5674 5674 5672 5666 5666 5676 5690 5701 5707 5707 5707 5709 5711 5713 5712 5713 5715 5717 5720 5724 5728 5732 5736 5739 5742 5746 5747 5749 5754 5758 5760 5761 5763 5765 5765 5764 5765 5765 5764 5765 5766 5767 5768 5769 5770 5770 5770 5770 5769 5771 5773 5774 5773 5773 5773 5771 5770 5770 5767 5764 5765 5767 5769 5770 5770 5774 5778 5777 5777 5778 5778 5779 5779 5778 5777 5776 5776 5776 5775
5640 5642 5645 5652 5660 5663 5665 5667 5665 5664 5663 5659 5657 5663 5674 5684 5695 5701 5700 5699 5698 5701 5704 5706 5707 5707 5710 5713 5716 5719 5722 5725 5730 5734 5737 5740 5742 5747 5751 5752 5755 5757 5758 5758 5756 5758 5759 5758 5758 5759 5761 5761 5763 5763 5763 5764 5764 5765 5767 5768 5768 5768 5768 5768 5767 5765 5765 5762 5759 5760 5762 5763 5765 5766 5769 5770 5770 5770 5771 5773 5775 5775 5774 5772 5771 5771 5770 5770
5632 5633 5637 5647 5654 5656 5659 5660 5658 5655 5652 5647 5650 5660 5671 5681 5691 5695 5692 5689 5687 5689 5695 5700 5702 5701 5702 5706 5709 5711 5712 5715 5721 5725 5728 5732 5735 5740 5743 5745 5749 5750 5750 5749 5749 5750 5752 5751 5751 5751 5753 5754 5755 5756 5757 5759 5761 5762 5763 5762 5762 5762 5762 5763 5763 5760 5760 5758 5757 5756 5755 5756 5760 5762 5762 5763 5765 5766 5768 5769 5770 5769 5768 5767 5765 5765 5765 5765
5622 5622 5629 5641 5646 5648 5653 5654 5649 5643 5640 5641 5648 5660 5669 5677 5684 5684 5682 5681 5680 5682 5689 5695 5696 5693 5695 5699 5701 5703 5705 5707 5712 5716 5721 5725 5729 5732 5735 5737 5741 5743 5742 5741 5742 5744 5743 5744 5745 5745 5746 5747 5748 5751 5753 5755 5756 5755 5755 5755 5755 5756 5756 5756 5756 5756 5756 5756 5755 5752 5747 5748 5754 5755 5755 5758 5760 5762 5763 5764 5764 5763 5762 5762 5760 5760 5760 5760
5611 5613 5622 5634 5636 5640 5645 5642 5635 5632 5632 5637 5647 5658 5663 5667 5671 5673 5674 5675 5674 5677 5683 5686 5687 5688 5691 5693 5694 5698 5700 5701 5703 5707 5712 5717 5721 5724 5727 5730 5733 5734 5733 5733 5736 5738 5737 5738 5740 5738 5739 5740 5742 5745 5746 5746 5747 5747 5748 5748 5749 5750 5750 5749 5750 5752 5753 5753 5752 5747 5740 5742 5749 5748 5749 5754 5756 5755 5756 5757 5758 5757 5756 5756 5756 5755 5754 5754
5600 5604 5617 5626 5627 5631 5633 5628 5626 5625 5625 5633 5645 5652 5653 5656 5661 5664 5666 5668 5668 5671 5675 5676 5678 5682 5686 5688 5689 5691 5692 5693 5696 5698 5702 5708 5713 5717 5720 5722 5724 5725 5726 5727 5730 5731 5730 5729 5731 5731 5732 5735 5736 5737 5737 5738 5739 5740 5741 5741 5742 5744 5745 5746 5747 5748 5748 5747 5746 5742 5735 5737 5744 5743 5744 5749 5751 5750 5750 5751 5752 5752 5750 5750 5750 5750 5750 5749
5590 5598 5610 5614 5616 5622 5621 5616 5617 5617 5620 5633 5641 5641 5642 5647 5653 5655 5656 5659 5662 5666 5667 5667 5671 5674 5678 5682 5683 5683 5684 5686 5689 5692 5697 5700 5704 5709 5712 5713 5715 5717 5718 5721 5723 5724 5722 5720 5723 5726 5727 5729 5730 5730 5731 5731 5731 5731 5733 5736 5738 5741 5743 5743 5742 5741 5741 5740 5739 5736 5730 5732 5739 5740 5739 5742 5745 5745 5744 5744 5746 5746 5745 5744 5744 5744 5744 5744
5583 5592 5600 5602 5606 5611 5608 5606 5610 5610 5618 5629 5630 5629 5635 5640 5643 5645 5648 5652 5657 5659 5659 5662 5666 5668 5671 5675 5675 5676 5678 5680 5682 5688 5692 5693 5696 5701 5702 5703 5706 5709 5711 5715 5715 5716 5714 5712 5716 5718 5719 5721 5722 5722 5723 5723 5723 5725 5730 5733 5734 5736 5737 5736 5736 5735 5733 5733 5733 5728 5724 5728 5735 5736 5734 5736 5738 5739 5739 5737 5738 5739 5740 5739 5738 5738 5739 5739
5575 5581 5588 5592 5595 5598 5597 5601 5606 5607 5614 5620 5619 5623 5629 5631 5634 5639 5642 5645 5648 5650 5652 5657 5661 5662 5663 5666 5667 5668 5671 5675 5679 5681 5682 5685 5689 5692 5692 5694 5698 5701 5705 5707 5707 5707 5705 5704 5707 5710 5711 5713 5715 5716 5718 5719 5721 5722 5725 5727 5727 5729 5730 5729 5730 5728 5724 5725 5725 5721 5721 5726 5731 5730 5729 5732 5732 5732 5732 5730 5730 5732 5734 5735 5734 5733 5733 5734
5565 5569 5576 5583 5585 5585 5588 5596 5599 5598 5605 5610 5611 5616 5620 5622 5629 5633 5634 5636 5639 5643 5647 5652 5655 5654 5654 5657 5659 5660 5665 5671 5674 5673 5673 5678 5681 5684 5685 5687 5690 5693 5697 5698 5698 5698 5695 5694 5699 5702 5703 5707 5711 5713 5713 5713 5714 5715 5718 5720 5720 5722 5723 5722 5721 5719 5718 5717 5717 5718 5720 5722 5725 5726 5727 5728 5727 5724 5725 5724 5725 5726 5726 5728 5729 5728 5728 5729
5555 5558 5567 5576 5577 5575 5579 5586 5589 5591 5598 5602 5603 5608 5612 5617 5623 5624 5623 5628 5634 5638 5641 5644 5646 5646 5647 5652 5654 5655 5660 5665 5665 5666 5670 5673 5675 5676 5678 5680 5683 5685 5688 5689 5689 5689 5686 5686 5692 5695 5696 5700 5706 5707 5705 5704 5706 5708 5710 5712 5713 5714 5715 5713 5711 5713 5714 5711 5709 5714 5716 5714 5719 5724 5723 5724 5722 5719 5718 5719 5719 5719 5718 5719 5721 5722 5722 5722
5546 5551 5560 5568 5569 5568 5571 5576 5581 5587 5592 5595 5597 5601 5606 5609 5613 5613 5617 5625 5629 5629 5630 5633 5637 5640 5644 5649 5649 5650 5654 5655 5656 5662 5667 5668 5668 5669 5670 5672 5674 5676 5679 5680 5681 5681 5680 5680 5686 5688 5689 5693 5699 5700 5697 5696 5698 5700 5701 5703 5705 5706 5706 5705 5706 5708 5707 5701 5702 5710 5711 5709 5714 5717 5715 5718 5718 5715 5714 5713 5711 5710 5710 5711 5712 5713 5714 5715
5539 5544 5553 5558 5559 5563 5568 5571 5576 5581 5586 5587 5589 5594 5598 5601 5604 5608 5614 5617 5617 5618 5620 5624 5632 5638 5641 5643 5642 5642 5645 5647 5651 5658 5662 5662 5662 5662 5663 5664 5666 5669 5672 5672 5673 5674 5673 5675 5679 5680 5681 5686 5692 5693 5690 5688 5689 5691 5692 5694 5697 5699 5699 5699 5698 5699 5697 5693 5698 5706 5705 5703 5707 5708 5708 5712 5711 5708 5707 5705 5704 5704 5703 5704 5704 5704 5706 5707
5531 5537 5545 5549 5550 5555 5561 5565 5568 5572 5577 5578 5579 5586 5592 5594 5599 5604 5606 5606 5608 5613 5615 5619 5628 5634 5634 5634 5633 5634 5640 5645 5649 5655 5657 5654 5653 5656 5657 5657 5660 5663 5664 5664 5666 5667 5666 5669 5672 5673 5673 5678 5686 5686 5681 5679 5680 5682 5684 5687 5692 5693 5691 5688 5688 5691 5691 5690 5696 5699 5695 5696 5701 5703 5703 5704 5700 5699 5700 5699 5699 5699 5697 5696 5696 5697 5698 5699
5523 5530 5538 5541 5542 5547 5552 5556 5559 5563 5567 5568 5571 5579 5584 5588 5595 5599 5598 5599 5604 5608 5609 5614 5623 5626 5625 5626 5625 5629 5638 5642 5643 5646 5648 5645 5646 5649 5650 5650 5653 5655 5655 5657 5659 5660 5661 5662 5665 5666 5664 5670 5681 5678 5671 5673 5673 5672 5677 5684 5687 5686 5682 5681 5683 5687 5687 5686 5689 5688 5685 5691 5698 5696 5694 5694 5692 5692 5693 5693 5692 5691 5690 5689 5689 5689 5690 5691
5515 5522 5529 5532 5534 5539 5543 5547 5550 5553 5557 5561 5566 5573 5577 5582 5590 5591 5588 5589 5595 5600 5604 5610 5616 5616 5614 5616 5620 5628 5635 5634 5633 5637 5639 5638 5640 5642 5643 5644 5646 5647 5649 5651 5651 5653 5655 5656 5659 5659 5656 5664 5673 5667 5663 5666 5662 5661 5673 5682 5682 5679 5676 5676 5677 5680 5680 5679 5679 5678 5679 5686 5691 5687 5685 5687 5686 5685 5686 5685 5684 5684 5683 5682 5682 5682 5683 5683